Weather History for EBLG - January, 2013

Change the Weather History Date:

Saturday, January 12, 2013

  Actual Average Record
Temperature  
Mean Temperature 31 °F -  
Max Temperature 36 °F 40 °F 51 °F (1998)
Min Temperature 26 °F 32 °F 17 °F (2003)
Degree Days  
Heating Degree Days 34    
Moisture  
Dew Point 22 °F    
Average Humidity 67    
Maximum Humidity 80    
Minimum Humidity 51    
Precipitation  
Precipitation 0.00 in - - ()
Sea Level Pressure  
Sea Level Pressure 30.00 in    
Wind  
Wind Speed 6 mph ()    
Max Wind Speed 10 mph    
Max Gust Speed 24 mph    
Visibility 8.0 miles    
Events      
Averages and records for this station are not official NWS values.
T = Trace of Precipitation, MM = Missing Value Source: Averaged Metar Reports

Daily Weather History Graph

Daily Weather History Graph

Search for Another Location

Airport or City:

Trip Planner

Search our weather history database for the weather conditions in past years. The results will help you decide how hot, cold, wet, or windy it might be!

Date:

Astronomy

Jan. 12, 2013 Rise Set
Actual Time 8:35 AM CET 4:57 PM CET
Civil Twilight 7:57 AM CET 5:35 PM CET
Nautical Twilight 7:16 AM CET 6:17 PM CET
Astronomical Twilight 6:37 AM CET 6:56 PM CET
Moon 8:33 AM CET (1/12) 6:19 PM CET (1/12)
Length of Visible Light 9h 38m
Length of Day
8h 22m
New Moon, 1% of the Moon is Illuminated
Jan 12
New Moon
Jan 19
First Quarter
Jan 27
Full
Feb 3
Last Quarter
Feb 10
New

Hourly Weather History & Observations

Time (CET) Temp. Windchill Dew Point Humidity Pressure Visibility Wind Dir Wind Speed Gust Speed Precip Events Conditions
12:20 AM 28.4 °F 22.2 °F 23.0 °F 80% 30.04 in - ESE 5.8 mph - N/A   Clear
12:50 AM 28.4 °F 21.2 °F 23.0 °F 80% 30.04 in - SE 6.9 mph - N/A   Clear
1:00 AM 29 °F - 22 °F 67% 30.09 in 6 mi SE 6.7 mph - -   Scattered Clouds
1:20 AM 28.4 °F 20.4 °F 21.2 °F 74% 30.04 in - ESE 8.1 mph - N/A   Clear
1:50 AM 28.4 °F 19.7 °F 23.0 °F 80% 30.04 in - SE 9.2 mph - N/A   Clear
2:20 AM 28.4 °F 21.2 °F 23.0 °F 80% 30.01 in - SE 6.9 mph - N/A   Clear
2:50 AM 28.4 °F 22.2 °F 21.2 °F 74% 30.01 in - SE 5.8 mph - N/A   Clear
3:20 AM 28.4 °F 24.6 °F 21.2 °F 74% 30.01 in - ESE 3.5 mph - N/A   Clear
3:50 AM 28.4 °F 23.3 °F 19.4 °F 69% 30.01 in - ESE 4.6 mph - N/A   Clear
4:00 AM 29 °F - 20 °F 57% 30.06 in 13 mi ESE 4.5 mph - -  
4:20 AM 28.4 °F 22.2 °F 19.4 °F 69% 30.01 in - ESE 5.8 mph - N/A   Clear
4:50 AM 28.4 °F 22.2 °F 19.4 °F 69% 30.01 in - ESE 5.8 mph - N/A   Clear
5:20 AM 28.4 °F 21.2 °F 17.6 °F 64% 30.01 in - SE 6.9 mph - N/A   Clear
5:50 AM 28.4 °F 20.4 °F 17.6 °F 64% 29.98 in - SE 8.1 mph - N/A   Clear
6:20 AM 28.4 °F 23.3 °F 17.6 °F 64% 30.01 in - ESE 4.6 mph - N/A   Clear
6:50 AM 28.4 °F 23.3 °F 17.6 °F 64% 30.01 in - ESE 4.6 mph - N/A   Clear
7:00 AM 29 °F - 18 °F 51% 30.04 in 13 mi ESE 4.5 mph - -  
7:20 AM 28.4 °F 23.3 °F 17.6 °F 64% 30.01 in - East 4.6 mph - N/A   Clear
7:50 AM 28.4 °F 23.3 °F 17.6 °F 64% 30.01 in - East 4.6 mph - N/A   Clear
8:20 AM 28.4 °F 22.2 °F 17.6 °F 64% 30.01 in - ESE 5.8 mph 19.6 mph N/A   Clear
8:50 AM 26.6 °F 20.0 °F 17.6 °F 69% 30.01 in - ESE 5.8 mph - N/A   Clear
9:20 AM 28.4 °F 22.2 °F 17.6 °F 64% 30.01 in - ESE 5.8 mph - N/A   Clear
9:50 AM 28.4 °F 22.2 °F 19.4 °F 69% 30.01 in - ESE 5.8 mph - N/A   Clear
10:00 AM 29 °F - 19 °F 53% 30.05 in 19 mi ESE 4.5 mph - -   Partly Cloudy
10:20 AM 30.2 °F 25.4 °F 19.4 °F 64% 30.01 in - ESE 4.6 mph - N/A   Clear
10:50 AM 28.4 °F 23.3 °F 19.4 °F 69% 30.01 in - ENE 4.6 mph - N/A   Clear
11:20 AM 30.2 °F 24.3 °F 19.4 °F 64% 30.01 in - East 5.8 mph - N/A   Clear
11:50 AM 32.0 °F 27.5 °F 21.2 °F 64% 30.01 in - East 4.6 mph - N/A   Clear
12:20 PM 32.0 °F 27.5 °F 21.2 °F 64% 29.98 in 6.2 mi ESE 4.6 mph - N/A   Mostly Cloudy
12:50 PM 33.8 °F 28.6 °F 23.0 °F 65% 29.98 in 6.2 mi ESE 5.8 mph - N/A   Scattered Clouds
1:00 PM 34 °F - 24 °F 54% 30.02 in 12 mi ESE 4.5 mph - -   Mostly Cloudy
1:20 PM 33.8 °F 27.7 °F 23.0 °F 65% 29.98 in 6.2 mi East 6.9 mph - N/A   Partly Cloudy
1:50 PM 33.8 °F 27.7 °F 23.0 °F 65% 29.95 in 6.2 mi ESE 6.9 mph - N/A   Partly Cloudy
2:20 PM 35.6 °F 28.0 °F 24.8 °F 65% 29.95 in 6.2 mi ESE 10.4 mph - N/A   Partly Cloudy
2:50 PM 35.6 °F 29.2 °F 26.6 °F 70% 29.95 in 6.2 mi ESE 8.1 mph - N/A   Partly Cloudy
3:20 PM 35.6 °F 28.0 °F 26.6 °F 70% 29.95 in 6.2 mi SE 10.4 mph - N/A   Partly Cloudy
3:50 PM 33.8 °F 27.7 °F 26.6 °F 75% 29.95 in 6.2 mi ESE 6.9 mph - N/A   Partly Cloudy
4:00 PM 34 °F - 26 °F 64% 29.99 in 16 mi ESE 6.7 mph - -   Partly Cloudy
4:20 PM 33.8 °F 27.7 °F 26.6 °F 75% 29.95 in 6.2 mi SE 6.9 mph - N/A   Partly Cloudy
4:50 PM 33.8 °F 28.6 °F 26.6 °F 75% 29.95 in 6.2 mi ESE 5.8 mph - N/A   Partly Cloudy
5:20 PM 33.8 °F 28.6 °F 26.6 °F 75% 29.95 in 6.2 mi ESE 5.8 mph - N/A   Scattered Clouds
5:50 PM 33.8 °F 27.7 °F 26.6 °F 75% 29.98 in 6.2 mi ESE 6.9 mph - N/A   Mostly Cloudy
6:20 PM 33.8 °F 27.7 °F 24.8 °F 70% 29.95 in 6.2 mi ESE 6.9 mph - N/A   Mostly Cloudy
6:50 PM 33.8 °F 27.7 °F 24.8 °F 70% 29.95 in 6.2 mi East 6.9 mph - N/A   Mostly Cloudy
7:00 PM 33 °F - 25 °F 61% 30.00 in 12 mi East 6.7 mph - -   Overcast
7:20 PM 33.8 °F 27.7 °F 24.8 °F 70% 29.98 in 6.2 mi ESE 6.9 mph - N/A   Mostly Cloudy
7:50 PM 33.8 °F 27.7 °F 24.8 °F 70% 29.98 in 6.2 mi ESE 6.9 mph - N/A   Mostly Cloudy
8:20 PM 33.8 °F 28.6 °F 24.8 °F 70% 29.98 in 6.2 mi ESE 5.8 mph - N/A   Mostly Cloudy
8:50 PM 33.8 °F 27.7 °F 24.8 °F 70% 29.98 in 6.2 mi ESE 6.9 mph - N/A   Mostly Cloudy
9:20 PM 33.8 °F 27.7 °F 23.0 °F 65% 29.95 in 6.2 mi Variable 6.9 mph 24.2 mph N/A   Mostly Cloudy
9:50 PM 33.8 °F 28.6 °F 23.0 °F 65% 29.95 in 6.2 mi ESE 5.8 mph - N/A   Mostly Cloudy
10:00 PM 33 °F - 24 °F 57% 30.01 in 16 mi ESE 6.7 mph - -   Overcast
10:20 PM 33.8 °F 28.6 °F 23.0 °F 65% 29.98 in 6.2 mi ESE 5.8 mph - N/A   Mostly Cloudy
10:50 PM 33.8 °F 27.7 °F 23.0 °F 65% 29.95 in 6.2 mi ESE 6.9 mph - N/A   Mostly Cloudy
11:20 PM 33.8 °F 30.8 °F 23.0 °F 65% 29.98 in 6.2 mi ESE 3.5 mph - N/A   Mostly Cloudy
11:50 PM 32.0 °F 28.7 °F 23.0 °F 69% 29.98 in 6.2 mi East 3.5 mph 17.3 mph N/A   Mostly Cloudy